SCP
0 0 0 0 0 0 0 0 0 0 0 0 0 0 0 0 0 0 0 0 0 0 0 0 0 0 0 0 0 0 0 0 0 0 0 0 0 0 0 0 0 0 0 0 0 0 0 0 0
0 0 0 0 0 0 0 0 0 0 0 0 0 0 0 0 0 0 0 0 0 0 0 0 0 0 0 0 0 0 0 0 0 0 0 0 0 0 0 0 0 0 0 0 0 0 0 0 0
0 0 0 0 0 0 0 0 0 0 0 0 0 0 0 0 0 0 0 0 0 0 0 0 0 0 0 0 0 0 0 0 0 0 0 0 0 0 0 0 0 0 0 0 0 0 0 0 0
0 0 0 0 0 0 0 0 0 0 0 0 0 0 0 0 0 0 0 0 0 0 0 0 0 0 0 0 0 0 0 0 0 0 0 0 0 0 0 0 0 0 0 0 0 0 0 0 0
0 0 0 0 0 0 0 0 0 0 0 0 0 0 0 0 0 0 0 0 0 0 0 0 0 0 0 0 0 0 0 0 0 0 0 0 0 0 0 0 0 0 0 0 0 0 0 0 0
0 0 0 0 0 0 0 0 0 0 0 0 0 0 0 0 0 0 0 0 0 0 0 0 0 0 0 0 0 0 0 0 0 0 0 0 0 0 0 0 0 0 0 0 0 0 0 0 0
0 0 0 0 0 0 0 0 0 0 0 0 0 0 0 0 0 0 0 0 0 0 0 0 0 0 0 0 0 0 0 0 0 0 0 0 0 0 0 0 0 0 0 0 0 0 0 0 0
0 0 0 0 0 0 0 0 0 0 0 0 0 0 0 0 0 0 0 0 0 0 1 0 0 0 0 0 0 0 0 0 0 0 0 0 0 0 1 1 1 1 1 1 1 0 0 1 1
0 0 0 0 0 0 0 0 0 0 0 0 0 0 0 0 0 0 0 0 0 1 1 0 0 0 0 0 0 0 0 0 0 0 0 0 0 0 1 1 1 1 1 1 1 1 1 1 1
0 0 0 0 0 0 0 0 0 0 0 0 0 0 0 0 0 0 0 0 0 1 1 1 1 1 0 0 1 1 1 1 1 1 1 1 1 0 1 1 1 1 1 1 1 1 1 1 1
0 0 0 0 0 0 0 0 0 0 0 0 0 1 1 0 0 0 0 1 1 1 1 1 1 1 1 1 1 1 1 1 1 1 1 1 1 1 1 1 1 2 2 1 1 1 1 1 1
0 0 0 0 0 0 0 0 0 0 0 0 0 1 1 1 1 1 1 1 1 1 1 1 2 2 1 1 1 1 1 1 1 2 2 2 2 1 1 1 2 2 2 2 1 2 1 1 1
0 0 0 0 0 0 0 0 0 0 0 0 0 0 1 1 1 1 1 2 2 2 1 2 3 3 2 2 1 1 1 1 2 2 2 2 2 2 2 2 2 2 2 2 2 2 2 1 1
0 0 0 0 -0 0 0 0 0 0 0 0 0 0 1 1 1 1 2 3 3 2 2 3 3 3 3 2 2 2 2 2 2 2 2 2 2 2 2 2 2 2 1 1 1 1 2 2 1
0 0 0 0 0 0 0 0 0 0 0 0 0 0 0 1 1 2 3 3 3 3 4 4 3 3 3 3 2 2 2 2 2 2 2 2 2 2 2 1 1 1 1 1 1 1 1 1 1
-0 -0 0 0 0 0 0 0 0 0 0 0 0 0 1 1 1 2 3 4 4 5 5 5 4 4 4 3 2 2 2 2 2 2 2 2 2 1 1 1 1 1 1 1 1 1 1 1 1
0 0 0 0 0 0 0 0 0 0 0 0 0 1 1 2 2 3 4 4 5 6 7 6 5 5 4 3 2 2 1 1 1 1 2 1 1 1 1 1 1 1 1 1 1 1 1 1 1
0 0 0 0 0 0 0 0 0 0 0 0 1 1 2 3 3 4 4 4 5 7 8 7 6 6 5 3 2 2 1 1 1 1 1 1 1 1 0 0 1 1 1 1 1 1 1 1 1
0 0 0 0 0 0 0 0 0 0 0 1 1 2 3 4 4 4 4 5 5 7 7 7 6 5 4 3 2 2 1 1 1 1 1 1 0 0 0 0 0 0 0 0 1 1 1 1 1
0 0 0 0 0 0 0 0 0 0 1 1 2 3 4 4 4 4 4 4 5 5 6 5 5 4 3 3 2 2 1 1 1 1 1 1 1 0 0 0 0 0 0 0 0 0 1 1 1
0 0 0 0 0 0 0 0 0 1 1 2 2 3 3 3 4 3 3 3 3 4 4 4 4 3 3 3 2 2 2 1 1 1 1 1 1 1 0 0 0 0 0 0 0 0 0 0 0
0 0 0 0 0 0 0 0 0 1 1 2 2 2 2 3 3 2 2 2 2 2 3 3 4 4 3 3 3 2 2 2 2 2 2 2 1 1 1 1 0 0 0 0 0 0 0 0 0
0 0 0 0 0 0 0 0 0 1 1 1 1 1 2 2 2 2 2 2 2 2 2 3 4 4 4 4 4 4 3 3 2 2 2 2 2 2 1 1 1 1 0 0 0 0 0 0 0
0 0 0 0 0 0 0 0 0 1 1 1 1 1 1 1 1 1 1 1 1 1 2 2 3 4 4 4 4 4 4 4 3 3 3 3 2 2 2 2 2 2 1 1 1 0 0 0 0
0 0 0 0 0 0 0 0 0 1 1 1 1 1 1 1 1 1 1 1 1 1 1 1 2 3 3 3 3 3 4 4 3 3 3 3 3 3 3 2 2 2 1 1 1 1 0 0 1
0 0 0 0 0 0 0 0 1 1 1 1 1 1 1 1 0 0 0 0 0 0 0 1 1 1 1 1 2 2 3 3 3 3 3 3 3 3 3 3 2 2 2 1 1 1 1 1 1
0 0 0 0 0 0 0 0 1 1 1 1 1 0 0 0 0 0 0 0 0 0 0 0 0 0 0 0 1 1 1 1 2 2 2 3 3 3 3 3 2 2 2 1 1 1 1 1 1
0 0 0 0 0 0 0 0 1 1 1 1 0 0 0 0 0 0 0 0 0 0 0 0 0 0 0 0 0 0 0 0 1 1 1 2 2 2 2 2 2 2 2 1 1 1 1 1 1
0 0 0 0 0 0 0 0 1 1 1 1 0 0 0 0 0 0 0 0 0 0 0 0 0 0 0 0 0 0 0 0 0 0 0 1 1 1 1 1 1 1 1 1 1 1 1 0 0
0 0 0 0 0 0 0 1 1 1 1 0 0 0 0 0 0 0 0 0 0 0 0 0 0 0 0 0 0 0 0 0 0 0 0 0 0 0 1 1 1 1 1 1 1 1 1 0 0
Wind_Speed
10 12 10 7 6 6 4 12 14 13 12 11 9 10 18 17 13 13 14 21 24 20 19 17 15 14 14 14 14 14 14 13 12 12 11 10 9 9 9 8 8 8 8 8 7 7 7 7 7
11 13 9 6 5 4 6 11 11 10 8 9 10 13 18 16 15 15 17 21 23 20 17 16 17 15 14 14 13 14 13 13 12 11 10 10 9 8 8 7 7 7 7 7 7 6 6 6 6
12 15 7 6 2 2 3 9 8 10 9 10 14 16 13 12 12 13 16 21 21 18 16 17 18 16 15 14 13 13 13 12 12 11 10 9 8 7 7 6 6 6 6 6 6 6 6 6 5
9 8 8 7 3 2 3 7 6 8 9 9 14 13 11 9 11 16 18 20 20 18 17 18 17 16 15 13 12 12 12 11 11 10 9 8 7 7 6 6 5 5 5 5 5 6 6 6 6
9 8 11 6 3 3 2 6 7 7 8 11 18 16 12 11 16 18 17 19 18 18 17 18 17 16 14 13 12 11 11 10 10 9 8 7 7 6 6 6 6 6 6 6 6 6 7 7 8
8 9 11 4 3 7 0 4 8 7 3 8 16 17 11 13 15 16 17 17 18 19 18 17 17 16 15 13 12 11 10 10 9 9 8 8 7 7 7 8 8 8 8 8 8 8 8 9 9
10 13 16 10 5 6 2 2 7 6 1 4 9 16 13 15 15 16 15 15 17 20 18 15 15 14 14 14 13 12 11 10 9 9 9 9 9 9 10 10 10 10 10 10 10 10 10 10 11
10 11 18 12 5 4 3 2 4 5 4 0 3 10 14 16 16 16 15 14 16 19 18 15 15 14 12 12 14 13 12 11 11 10 10 11 11 12 14 13 14 14 13 13 12 12 13 12 12
13 12 15 12 5 1 1 2 3 5 8 4 3 13 20 20 18 16 14 13 13 16 17 16 16 14 13 13 14 14 13 12 11 11 13 11 9 11 12 17 17 18 17 16 15 14 14 13 14
10 12 16 9 5 3 0 3 4 3 6 4 7 16 18 18 17 16 15 14 12 13 16 14 15 14 12 11 11 10 10 11 10 9 10 9 8 7 10 10 18 20 19 18 17 15 14 12 9
13 16 16 13 9 8 7 6 5 8 3 7 11 8 9 15 15 15 15 13 11 10 11 14 13 12 10 6 9 6 6 7 10 10 8 7 6 6 7 4 8 11 14 11 12 13 10 10 9
15 14 15 13 11 10 11 11 10 9 1 12 13 16 15 14 15 15 15 14 13 10 9 12 13 10 5 4 5 5 4 5 6 7 8 6 4 3 3 3 2 4 5 7 7 6 10 10 10
13 13 15 15 13 12 12 12 12 11 7 8 13 16 18 17 16 15 15 14 14 10 9 8 10 9 5 2 1 2 2 2 2 2 4 2 2 2 3 2 2 4 3 3 3 3 4 4 5
13 15 15 14 14 14 14 14 15 14 10 5 7 10 13 15 15 14 12 13 14 12 11 9 10 10 7 4 2 2 2 1 1 1 1 1 1 1 2 3 3 3 4 4 3 4 4 4 3
13 15 17 18 18 18 14 14 15 14 8 5 6 8 10 10 11 13 15 12 15 13 11 9 10 10 8 7 6 5 4 4 2 2 2 2 2 1 2 3 4 4 4 4 4 5 4 5 5
15 16 18 20 20 16 11 13 11 4 3 3 6 7 8 6 7 10 14 11 13 14 11 9 10 12 9 5 4 3 3 1 1 1 2 2 0 1 2 3 3 2 3 4 4 4 4 5 5
16 18 19 18 16 11 9 10 4 3 4 3 5 5 5 7 7 7 11 10 7 9 10 8 5 8 9 6 4 3 1 1 1 1 2 3 1 2 2 2 3 3 3 3 5 3 3 4 5
12 11 11 11 4 3 6 9 5 2 4 5 3 1 3 4 3 4 5 7 7 7 8 7 6 7 6 5 4 3 3 3 2 1 3 3 1 2 3 3 3 4 3 3 3 4 4 4 5
13 13 13 9 4 1 6 11 9 5 4 3 0 4 6 3 3 5 5 6 8 7 7 7 7 5 3 2 3 3 3 2 2 2 4 3 0 2 2 3 3 4 3 4 5 4 5 5 4
10 10 10 8 6 5 7 12 12 8 3 1 4 6 6 5 7 9 9 9 8 7 6 7 7 4 2 1 1 0 0 2 2 2 4 3 1 0 3 2 3 4 4 5 5 4 4 5 5
8 9 9 10 10 10 12 15 13 6 2 5 6 9 10 10 10 10 9 9 10 8 4 5 4 4 2 2 2 2 1 2 2 2 3 3 2 2 2 2 3 4 4 4 5 5 5 5 5
8 7 10 11 12 12 14 12 6 5 6 9 10 12 12 10 12 13 12 11 10 9 7 5 4 2 1 1 3 4 3 3 2 1 2 3 3 3 3 3 3 3 3 5 5 4 4 5 5
9 10 11 14 14 15 14 12 2 7 8 9 7 8 9 9 13 14 12 11 11 10 9 8 8 6 5 5 5 5 5 4 4 4 2 2 3 5 5 5 3 3 4 5 4 5 5 4 6
9 12 14 11 7 9 13 12 5 5 7 9 8 9 11 12 13 12 12 12 11 12 11 11 11 10 9 8 8 7 7 7 7 7 6 4 4 4 5 5 4 3 4 4 4 5 6 5 6
8 11 9 7 2 5 9 8 3 5 7 9 11 12 13 12 12 12 12 11 11 12 12 12 11 10 10 10 10 9 8 8 7 7 7 6 5 5 3 2 2 3 4 4 5 5 6 6 7
9 9 9 12 11 5 12 8 5 8 8 10 12 12 11 11 10 10 10 9 9 10 10 10 9 9 9 8 8 7 8 6 6 7 7 7 6 6 6 4 3 4 5 6 5 5 6 6 6
7 9 13 12 13 12 4 7 7 8 8 8 8 8 9 8 8 8 8 7 7 7 7 7 7 7 7 8 7 6 7 7 7 7 7 6 6 8 8 7 6 5 6 6 6 6 6 6 6
5 9 7 8 10 12 12 3 4 7 7 4 3 6 7 7 8 8 7 6 5 5 4 4 4 5 5 6 6 7 7 7 7 7 7 7 7 8 9 9 8 7 7 7 7 6 6 6 6
7 8 8 7 9 11 14 6 6 7 5 4 5 7 7 8 9 8 8 7 7 7 7 6 6 6 5 6 6 6 6 7 7 7 8 8 8 8 9 9 9 9 8 8 7 7 7 7 7
9 7 7 7 9 10 11 5 7 7 6 6 6 6 7 8 8 9 9 9 8 8 8 7 7 7 7 6 6 6 6 7 8 8 8 8 9 9 10 10 10 10 10 8 8 8 7 7 8
Wind_Direction
250 242 233 253 254 255 53 66 58 58 62 69 50 49 60 52 62 90 113 112 114 124 132 134 134 134 135 137 139 140 140 138 136 135 135 133 128 125 122 119 117 115 113 112 112 111 107 105 105
275 263 242 247 278 317 66 73 71 66 62 72 64 63 75 70 85 105 110 115 120 128 138 138 138 138 138 140 142 144 144 143 142 142 141 140 138 136 134 131 130 128 126 125 124 123 122 121 122
263 261 262 239 237 279 67 79 84 91 75 82 80 61 62 86 100 110 119 123 123 131 137 136 144 143 143 144 146 148 149 149 148 148 149 149 148 148 147 146 148 147 145 145 145 145 144 145 147
269 256 229 249 242 247 93 90 83 90 87 80 89 81 73 75 107 119 129 124 124 133 136 142 148 147 148 149 150 152 153 153 153 154 157 159 161 165 166 168 172 175 176 175 175 175 172 173 176
263 258 258 267 315 285 85 89 83 71 72 79 90 93 92 95 111 126 133 127 136 138 135 145 151 151 153 154 155 156 158 159 161 164 168 174 180 186 190 194 199 205 208 208 207 205 201 198 199
274 269 277 289 281 284 138 107 89 61 78 107 109 107 105 120 127 139 139 142 143 136 137 145 153 155 158 161 163 165 167 170 173 178 183 191 199 206 213 216 218 221 224 226 226 224 221 217 215
274 292 292 282 217 245 285 99 110 137 74 78 110 115 130 142 143 147 147 151 145 137 134 149 156 160 164 168 171 174 177 180 185 192 199 206 214 221 226 228 228 227 228 230 232 233 232 228 225
282 290 289 284 239 223 200 233 135 128 104 185 130 116 141 143 153 148 153 156 146 136 141 155 159 162 169 173 179 181 185 189 194 202 210 216 224 229 232 231 227 229 229 229 231 234 235 234 232
268 269 275 291 326 283 127 285 160 150 160 200 90 120 142 150 152 150 160 160 152 144 146 162 159 164 174 178 177 183 190 196 200 209 217 221 230 232 226 227 225 223 224 225 227 231 234 236 236
251 265 275 313 345 321 34 285 303 248 175 151 82 100 136 150 153 161 167 163 156 149 155 164 160 164 181 184 161 183 191 191 203 210 205 209 225 247 255 220 215 217 219 222 226 230 234 235 239
254 264 285 307 319 320 308 283 258 257 210 117 108 120 158 159 163 170 171 165 155 161 167 158 152 158 182 170 159 186 192 179 197 213 204 202 216 236 249 224 204 210 216 220 223 224 227 230 229
255 268 288 296 303 305 299 297 292 285 203 129 136 161 180 181 179 179 173 166 156 172 180 161 147 154 180 173 173 176 191 174 193 194 205 203 204 241 270 277 237 204 209 208 223 211 215 224 235
270 271 272 274 278 277 277 278 279 277 273 145 154 167 179 186 188 184 172 164 157 173 182 156 141 144 155 161 280 202 201 188 185 164 190 192 210 246 276 297 305 298 290 264 235 248 245 237 244
281 285 286 285 282 274 268 266 266 259 254 224 177 185 195 196 192 177 168 163 159 172 177 156 146 144 150 157 182 299 289 201 252 181 173 170 232 262 287 288 286 279 284 293 293 284 273 270 268
266 272 273 267 259 254 255 260 260 258 250 251 234 217 211 205 190 171 165 174 163 169 169 153 158 153 162 174 184 204 223 217 200 164 176 192 221 233 260 271 268 262 267 274 273 276 272 266 263
268 260 258 254 246 241 241 262 273 290 273 277 268 237 208 187 195 173 161 170 167 166 156 159 173 160 160 166 173 224 231 139 128 162 175 149 282 267 262 268 270 277 267 260 256 249 256 259 258
246 243 250 253 238 228 238 267 282 28 320 274 252 246 202 168 189 167 153 160 157 142 142 149 147 140 145 151 166 222 205 152 237 220 119 88 24 319 305 300 302 304 288 279 281 284 266 268 265
303 287 263 257 212 187 262 276 268 126 269 275 251 205 123 139 138 114 114 140 124 116 124 132 127 117 129 148 173 200 202 191 196 166 106 86 7 9 12 311 334 338 309 299 311 315 297 277 263
314 311 312 321 20 310 277 288 293 271 235 262 357 90 88 102 110 83 88 93 99 105 106 113 115 115 129 166 189 194 189 202 184 155 118 112 49 22 339 305 331 310 302 321 312 299 297 292 281
289 293 297 309 323 296 277 276 274 266 241 52 51 76 91 96 70 65 59 60 74 84 95 96 102 116 150 169 295 256 91 229 202 141 138 159 161 16 295 354 326 319 328 304 296 309 303 297 297
305 316 321 322 311 286 271 263 256 249 149 88 52 54 51 68 69 62 57 57 58 56 66 111 124 153 181 181 254 264 206 272 250 195 176 165 163 221 261 287 289 306 299 303 332 307 293 298 303
312 329 314 302 290 281 279 278 252 158 102 72 51 49 46 47 63 59 49 46 45 42 43 53 85 101 113 202 273 274 259 259 264 231 193 158 189 221 231 246 262 279 290 298 295 327 332 309 296
310 312 295 286 286 286 285 282 199 117 103 86 77 81 82 58 62 62 54 47 45 40 36 28 32 31 21 4 341 330 315 315 325 331 311 203 226 219 218 221 228 252 270 280 294 298 291 288 284
307 298 286 283 301 308 322 324 266 133 131 130 126 106 95 80 70 62 56 49 44 40 36 34 32 26 19 11 1 356 344 337 329 324 316 303 272 237 218 211 205 228 258 280 290 287 285 278 280
315 300 298 301 261 233 249 258 265 89 113 117 108 95 87 79 74 68 57 49 43 41 35 32 33 28 22 23 16 8 360 347 335 325 316 310 301 291 270 257 209 242 261 269 269 272 273 273 273
309 301 301 309 308 282 207 224 117 90 67 78 87 85 81 77 72 69 62 53 44 40 36 32 26 21 17 17 9 7 9 357 349 344 332 322 318 318 326 323 285 257 258 268 270 276 273 271 273
306 320 323 312 306 309 296 100 95 93 75 56 66 73 64 58 56 54 50 43 36 30 30 25 17 9 5 1 352 355 4 352 347 337 331 333 333 323 328 321 305 284 270 264 265 268 270 274 271
288 310 314 316 317 315 317 56 145 147 129 124 76 54 44 29 24 24 19 15 10 359 5 11 4 351 342 340 337 339 343 335 332 327 329 328 327 325 318 313 304 292 279 269 262 267 270 273 273
306 306 322 318 316 316 314 13 62 95 93 76 55 38 22 6 357 352 349 349 344 340 344 347 343 335 329 324 322 319 316 318 316 312 313 318 317 315 311 305 297 289 283 273 265 265 270 276 279
318 315 315 312 313 308 309 47 45 55 55 47 26 8 357 343 332 327 327 327 325 326 326 322 316 307 300 297 296 295 296 296 295 294 298 300 301 303 303 302 296 286 281 276 271 268 273 279 283